Time,TemperatureF,DewpointF,PressureIn,WindDirection,WindDirectionDegrees,WindSpeedMPH,WindSpeedGustMPH,Humidity,HourlyPrecipIn,Conditions,Clouds,dailyrainin,SoftwareType,DateUTC
2013-03-25 00:00:00,22.7,17.7,30.29,NW,307,15.0,20.0,81,0.00,,,0.01,Wunderground v.1.15,2013-03-25 05:00:00,
2013-03-25 00:05:00,22.8,17.8,30.29,NW,321,16.0,21.0,81,0.00,,,0.00,Wunderground v.1.15,2013-03-25 05:05:00,
2013-03-25 00:15:00,22.8,17.8,30.29,NW,306,16.0,21.0,81,0.00,,,0.00,Wunderground v.1.15,2013-03-25 05:15:00,
2013-03-25 00:20:00,22.8,18.1,30.29,WNW,295,15.0,22.0,82,0.00,,,0.00,Wunderground v.1.15,2013-03-25 05:20:00,
2013-03-25 00:25:00,22.9,17.9,30.29,NW,304,16.0,22.0,81,0.00,,,0.00,Wunderground v.1.15,2013-03-25 05:25:00,
2013-03-25 00:30:00,23.0,18.3,30.29,NW,307,17.0,17.0,82,0.00,,,0.00,Wunderground v.1.15,2013-03-25 05:30:00,
2013-03-25 00:40:00,23.0,18.3,30.30,WNW,303,16.0,19.0,82,0.00,,,0.00,Wunderground v.1.15,2013-03-25 05:40:00,
2013-03-25 00:45:00,23.0,18.3,30.30,WNW,282,15.0,19.0,82,0.00,,,0.00,Wunderground v.1.15,2013-03-25 05:45:00,
2013-03-25 00:50:00,23.1,18.4,30.29,WNW,302,16.0,19.0,82,0.00,,,0.00,Wunderground v.1.15,2013-03-25 05:50:00,
2013-03-25 01:00:00,23.1,18.4,30.29,NW,311,19.0,19.0,82,0.00,,,0.00,Wunderground v.1.15,2013-03-25 06:00:00,
2013-03-25 01:05:00,23.0,18.6,30.29,NW,313,18.0,19.0,83,0.00,,,0.00,Wunderground v.1.15,2013-03-25 06:05:00,
2013-03-25 01:15:00,23.0,18.6,30.29,NW,311,20.0,23.0,83,0.00,,,0.00,Wunderground v.1.15,2013-03-25 06:15:00,
2013-03-25 01:20:00,22.9,18.8,30.30,NW,309,20.0,21.0,84,0.00,,,0.00,Wunderground v.1.15,2013-03-25 06:20:00,
2013-03-25 01:25:00,22.8,18.7,30.30,NW,323,20.0,23.0,84,0.00,,,0.00,Wunderground v.1.15,2013-03-25 06:25:00,
2013-03-25 01:30:00,22.7,18.6,30.30,NW,311,19.0,19.0,84,0.00,,,0.00,Wunderground v.1.15,2013-03-25 06:30:00,
2013-03-25 01:40:00,22.7,18.6,30.29,NW,310,19.0,19.0,84,0.00,,,0.00,Wunderground v.1.15,2013-03-25 06:40:00,
2013-03-25 01:45:00,22.7,18.6,30.30,NW,320,19.0,21.0,84,0.00,,,0.00,Wunderground v.1.15,2013-03-25 06:45:00,
2013-03-25 01:50:00,22.7,18.6,30.30,NNW,331,19.0,19.0,84,0.00,,,0.00,Wunderground v.1.15,2013-03-25 06:50:00,
2013-03-25 01:55:00,22.6,18.5,30.30,NW,323,19.0,26.0,84,0.00,,,0.00,Wunderground v.1.15,2013-03-25 06:55:00,
2013-03-25 02:05:00,22.6,18.5,30.30,NW,315,20.0,20.0,84,0.00,,,0.00,Wunderground v.1.15,2013-03-25 07:05:00,
2013-03-25 02:10:00,22.5,18.4,30.30,WNW,298,20.0,20.0,84,0.00,,,0.00,Wunderground v.1.15,2013-03-25 07:10:00,
2013-03-25 02:20:00,22.4,18.3,30.30,NW,317,19.0,19.0,84,0.00,,,0.00,Wunderground v.1.15,2013-03-25 07:20:00,
2013-03-25 02:25:00,22.4,18.3,30.30,NW,318,19.0,23.0,84,0.00,,,0.00,Wunderground v.1.15,2013-03-25 07:25:00,
2013-03-25 02:30:00,22.3,18.5,30.31,NW,306,19.0,19.0,85,0.00,,,0.00,Wunderground v.1.15,2013-03-25 07:30:00,
2013-03-25 02:35:00,22.2,18.4,30.31,NW,324,19.0,21.0,85,0.00,,,0.00,Wunderground v.1.15,2013-03-25 07:35:00,
2013-03-25 02:45:00,22.2,18.4,30.31,WNW,282,18.0,19.0,85,0.00,,,0.00,Wunderground v.1.15,2013-03-25 07:45:00,
2013-03-25 02:50:00,22.2,18.4,30.31,WNW,302,19.0,19.0,85,0.00,,,0.00,Wunderground v.1.15,2013-03-25 07:50:00,
2013-03-25 02:55:00,22.3,18.5,30.31,NW,319,19.0,19.0,85,0.00,,,0.00,Wunderground v.1.15,2013-03-25 07:55:00,
2013-03-25 03:05:00,22.3,18.5,30.32,NW,312,19.0,19.0,85,0.00,,,0.00,Wunderground v.1.15,2013-03-25 08:05:00,
2013-03-25 03:10:00,22.4,18.6,30.32,NW,316,18.0,21.0,85,0.00,,,0.00,Wunderground v.1.15,2013-03-25 08:10:00,
2013-03-25 03:15:00,22.4,18.6,30.32,NW,316,18.0,23.0,85,0.00,,,0.00,Wunderground v.1.15,2013-03-25 08:15:00,
2013-03-25 03:20:00,22.5,18.4,30.32,NW,311,18.0,18.0,84,0.00,,,0.00,Wunderground v.1.15,2013-03-25 08:20:00,
2013-03-25 03:30:00,22.2,18.1,30.32,WNW,296,17.0,17.0,84,0.00,,,0.00,Wunderground v.1.15,2013-03-25 08:30:00,
2013-03-25 03:35:00,22.2,18.1,30.32,NW,313,18.0,18.0,84,0.00,,,0.00,Wunderground v.1.15,2013-03-25 08:35:00,
2013-03-25 03:40:00,22.2,18.1,30.32,WNW,302,18.0,19.0,84,0.00,,,0.00,Wunderground v.1.15,2013-03-25 08:40:00,
2013-03-25 03:45:00,22.2,18.1,30.32,NW,316,19.0,23.0,84,0.00,,,0.00,Wunderground v.1.15,2013-03-25 08:45:00,
2013-03-25 03:50:00,22.2,18.1,30.32,WNW,300,19.0,19.0,84,0.00,,,0.00,Wunderground v.1.15,2013-03-25 08:50:00,
2013-03-25 04:00:00,22.0,17.9,30.33,NW,307,17.0,17.0,84,0.00,,,0.00,Wunderground v.1.15,2013-03-25 09:00:00,
2013-03-25 04:05:00,21.8,18.0,30.33,NW,319,17.0,19.0,85,0.00,,,0.00,Wunderground v.1.15,2013-03-25 09:05:00,
2013-03-25 04:10:00,21.6,17.8,30.33,NW,319,16.0,19.0,85,0.00,,,0.00,Wunderground v.1.15,2013-03-25 09:10:00,
2013-03-25 04:20:00,21.5,17.7,30.33,NW,312,16.0,19.0,85,0.00,,,0.00,Wunderground v.1.15,2013-03-25 09:20:00,
2013-03-25 04:25:00,21.4,17.6,30.33,NW,318,16.0,19.0,85,0.00,,,0.00,Wunderground v.1.15,2013-03-25 09:25:00,
2013-03-25 04:30:00,21.3,17.5,30.33,NW,307,15.0,15.0,85,0.00,,,0.00,Wunderground v.1.15,2013-03-25 09:30:00,
2013-03-25 04:40:00,21.3,17.5,30.34,NW,311,14.0,14.0,85,0.00,,,0.00,Wunderground v.1.15,2013-03-25 09:40:00,
2013-03-25 04:45:00,21.3,17.8,30.34,NW,312,14.0,19.0,86,0.00,,,0.00,Wunderground v.1.15,2013-03-25 09:45:00,
2013-03-25 04:50:00,21.3,17.8,30.34,NW,311,14.0,19.0,86,0.00,,,0.00,Wunderground v.1.15,2013-03-25 09:50:00,
2013-03-25 05:00:00,21.3,17.5,30.34,NW,315,14.0,14.0,85,0.00,,,0.00,Wunderground v.1.15,2013-03-25 10:00:00,
2013-03-25 05:05:00,21.2,17.4,30.34,NW,310,14.0,19.0,85,0.00,,,0.00,Wunderground v.1.15,2013-03-25 10:05:00,
2013-03-25 05:10:00,21.1,17.6,30.34,NW,304,12.0,12.0,86,0.00,,,0.00,Wunderground v.1.15,2013-03-25 10:10:00,
2013-03-25 05:20:00,21.2,17.7,30.35,NW,312,12.0,12.0,86,0.00,,,0.00,Wunderground v.1.15,2013-03-25 10:20:00,
2013-03-25 05:25:00,21.5,18.2,30.35,NW,316,13.0,13.0,87,0.00,,,0.00,Wunderground v.1.15,2013-03-25 10:25:00,
2013-03-25 05:30:00,21.8,18.3,30.35,NW,323,14.0,19.0,86,0.00,,,0.00,Wunderground v.1.15,2013-03-25 10:30:00,
2013-03-25 05:35:00,22.1,18.6,30.35,NW,319,14.0,19.0,86,0.00,,,0.00,Wunderground v.1.15,2013-03-25 10:35:00,
2013-03-25 05:45:00,22.3,18.5,30.35,WNW,302,12.0,19.0,85,0.00,,,0.00,Wunderground v.1.15,2013-03-25 10:45:00,
2013-03-25 05:50:00,22.3,18.5,30.35,WNW,294,13.0,19.0,85,0.00,,,0.00,Wunderground v.1.15,2013-03-25 10:50:00,
2013-03-25 05:55:00,22.4,18.6,30.35,NW,319,13.0,19.0,85,0.00,,,0.00,Wunderground v.1.15,2013-03-25 10:55:00,
2013-03-25 06:05:00,22.7,18.9,30.35,NW,309,13.0,19.0,85,0.00,,,0.00,Wunderground v.1.15,2013-03-25 11:05:00,
2013-03-25 06:10:00,22.8,18.7,30.35,NW,304,14.0,19.0,84,0.00,,,0.00,Wunderground v.1.15,2013-03-25 11:10:00,
2013-03-25 06:15:00,22.9,18.8,30.35,WNW,292,14.0,19.0,84,0.00,,,0.00,Wunderground v.1.15,2013-03-25 11:15:00,
2013-03-25 06:25:00,23.1,18.7,30.35,NW,306,13.0,19.0,83,0.00,,,0.00,Wunderground v.1.15,2013-03-25 11:25:00,
2013-03-25 06:30:00,23.2,18.8,30.35,NW,309,14.0,19.0,83,0.00,,,0.00,Wunderground v.1.15,2013-03-25 11:30:00,
2013-03-25 06:35:00,23.4,18.7,30.36,WNW,300,16.0,19.0,82,0.00,,,0.00,Wunderground v.1.15,2013-03-25 11:35:00,
2013-03-25 06:45:00,23.6,18.6,30.36,WNW,301,15.0,19.0,81,0.00,,,0.00,Wunderground v.1.15,2013-03-25 11:45:00,
2013-03-25 06:50:00,23.6,18.6,30.36,NW,309,14.0,14.0,81,0.00,,,0.00,Wunderground v.1.15,2013-03-25 11:50:00,
2013-03-25 06:55:00,23.6,18.6,30.36,WNW,303,13.0,19.0,81,0.00,,,0.00,Wunderground v.1.15,2013-03-25 11:55:00,
2013-03-25 07:05:00,23.5,18.5,30.36,NW,311,18.0,27.0,81,0.00,,,0.00,Wunderground v.1.15,2013-03-25 12:05:00,
2013-03-25 07:10:00,23.3,18.0,30.36,NW,319,21.0,21.0,80,0.00,,,0.00,Wunderground v.1.15,2013-03-25 12:10:00,
2013-03-25 07:15:00,23.0,17.7,30.37,NNW,329,18.0,21.0,80,0.00,,,0.00,Wunderground v.1.15,2013-03-25 12:15:00,
2013-03-25 07:25:00,22.7,17.7,30.37,NW,309,19.0,26.0,81,0.00,,,0.00,Wunderground v.1.15,2013-03-25 12:25:00,
2013-03-25 07:30:00,22.5,17.5,30.37,NW,312,18.0,19.0,81,0.00,,,0.00,Wunderground v.1.15,2013-03-25 12:30:00,
2013-03-25 07:35:00,22.5,17.5,30.37,WNW,295,18.0,19.0,81,0.00,,,0.00,Wunderground v.1.15,2013-03-25 12:35:00,
2013-03-25 07:40:00,22.5,17.8,30.37,NW,309,18.0,18.0,82,0.00,,,0.00,Wunderground v.1.15,2013-03-25 12:40:00,
2013-03-25 07:50:00,22.5,17.5,30.37,NW,304,18.0,18.0,81,0.00,,,0.00,Wunderground v.1.15,2013-03-25 12:50:00,
2013-03-25 07:55:00,22.5,17.5,30.38,NW,318,17.0,19.0,81,0.00,,,0.00,Wunderground v.1.15,2013-03-25 12:55:00,
2013-03-25 08:00:00,22.5,17.8,30.38,NW,318,16.0,19.0,82,0.00,,,0.00,Wunderground v.1.15,2013-03-25 13:00:00,
2013-03-25 08:05:00,22.6,17.9,30.38,NW,325,16.0,19.0,82,0.00,,,0.00,Wunderground v.1.15,2013-03-25 13:05:00,
2013-03-25 08:15:00,22.7,17.7,30.38,NW,324,16.0,19.0,81,0.00,,,0.00,Wunderground v.1.15,2013-03-25 13:15:00,
2013-03-25 08:20:00,22.8,18.1,30.38,NW,310,17.0,19.0,82,0.00,,,0.00,Wunderground v.1.15,2013-03-25 13:20:00,
2013-03-25 08:30:00,23.0,18.0,30.39,NW,326,17.0,21.0,81,0.00,,,0.00,Wunderground v.1.15,2013-03-25 13:30:00,
2013-03-25 08:35:00,23.1,18.1,30.39,WNW,303,17.0,21.0,81,0.00,,,0.00,Wunderground v.1.15,2013-03-25 13:35:00,
2013-03-25 08:40:00,23.3,18.3,30.39,NW,314,17.0,21.0,81,0.00,,,0.00,Wunderground v.1.15,2013-03-25 13:40:00,
2013-03-25 08:45:00,23.5,18.2,30.39,NW,308,18.0,21.0,80,0.00,,,0.00,Wunderground v.1.15,2013-03-25 13:45:00,
2013-03-25 08:50:00,23.6,18.0,30.39,NW,312,21.0,21.0,79,0.00,,,0.00,Wunderground v.1.15,2013-03-25 13:50:00,
2013-03-25 09:00:00,23.8,18.5,30.40,WNW,294,16.0,19.0,80,0.00,,,0.00,Wunderground v.1.15,2013-03-25 14:00:00,
2013-03-25 09:05:00,23.7,18.4,30.39,NW,308,16.0,22.0,80,0.00,,,0.00,Wunderground v.1.15,2013-03-25 14:05:00,
2013-03-25 09:10:00,23.7,18.7,30.40,NW,313,18.0,19.0,81,0.00,,,0.00,Wunderground v.1.15,2013-03-25 14:10:00,
2013-03-25 09:15:00,23.9,18.9,30.39,NW,311,20.0,24.0,81,0.00,,,0.00,Wunderground v.1.15,2013-03-25 14:15:00,
2013-03-25 09:25:00,24.0,19.0,30.40,NW,321,21.0,22.0,81,0.00,,,0.00,Wunderground v.1.15,2013-03-25 14:25:00,
2013-03-25 09:30:00,24.4,19.7,30.40,NW,311,19.0,19.0,82,0.00,,,0.00,Wunderground v.1.15,2013-03-25 14:30:00,
2013-03-25 09:35:00,24.1,19.1,30.40,NW,312,17.0,19.0,81,0.00,,,0.00,Wunderground v.1.15,2013-03-25 14:35:00,
2013-03-25 09:45:00,24.2,19.5,30.40,NW,319,20.0,25.0,82,0.00,,,0.00,Wunderground v.1.15,2013-03-25 14:45:00,
2013-03-25 09:50:00,24.3,19.3,30.40,WNW,301,21.0,21.0,81,0.00,,,0.00,Wunderground v.1.15,2013-03-25 14:50:00,
2013-03-25 09:55:00,24.2,19.5,30.40,NW,321,22.0,22.0,82,0.00,,,0.00,Wunderground v.1.15,2013-03-25 14:55:00,
2013-03-25 10:05:00,24.3,19.0,30.40,NW,309,23.0,23.0,80,0.00,,,0.00,Wunderground v.1.15,2013-03-25 15:05:00,
2013-03-25 10:10:00,24.5,18.9,30.40,NW,309,24.0,24.0,79,0.00,,,0.00,Wunderground v.1.15,2013-03-25 15:10:00,
2013-03-25 10:15:00,24.7,18.5,30.41,NW,309,24.0,27.0,77,0.00,,,0.00,Wunderground v.1.15,2013-03-25 15:15:00,
2013-03-25 10:25:00,25.1,18.3,30.41,NW,312,21.0,28.0,75,0.00,,,0.00,Wunderground v.1.15,2013-03-25 15:25:00,
2013-03-25 10:30:00,25.1,18.0,30.41,NNW,343,19.0,19.0,74,0.00,,,0.00,Wunderground v.1.15,2013-03-25 15:30:00,
2013-03-25 10:35:00,25.9,19.1,30.41,NW,309,19.0,21.0,75,0.00,,,0.00,Wunderground v.1.15,2013-03-25 15:35:00,
2013-03-25 10:40:00,26.2,19.0,30.42,NW,323,17.0,17.0,74,0.00,,,0.00,Wunderground v.1.15,2013-03-25 15:40:00,
2013-03-25 10:45:00,26.0,18.2,30.41,NW,321,18.0,18.0,72,0.00,,,0.00,Wunderground v.1.15,2013-03-25 15:45:00,
2013-03-25 10:55:00,26.0,17.9,30.41,NW,304,21.0,25.0,71,0.00,,,0.00,Wunderground v.1.15,2013-03-25 15:55:00,
2013-03-25 11:00:00,26.1,17.3,30.42,NW,319,21.0,31.0,69,0.00,,,0.00,Wunderground v.1.15,2013-03-25 16:00:00,
2013-03-25 11:05:00,26.7,17.9,30.42,NW,323,19.0,31.0,69,0.00,,,0.00,Wunderground v.1.15,2013-03-25 16:05:00,
2013-03-25 11:15:00,26.2,18.1,30.42,NW,323,22.0,29.0,71,0.00,,,0.00,Wunderground v.1.15,2013-03-25 16:15:00,
2013-03-25 11:20:00,26.3,17.8,30.42,NNW,346,21.0,21.0,70,0.00,,,0.00,Wunderground v.1.15,2013-03-25 16:20:00,
2013-03-25 11:25:00,26.8,18.3,30.42,NW,316,21.0,21.0,70,0.00,,,0.00,Wunderground v.1.15,2013-03-25 16:25:00,
2013-03-25 11:35:00,26.5,19.3,30.42,NW,313,20.0,23.0,74,0.00,,,0.00,Wunderground v.1.15,2013-03-25 16:35:00,
2013-03-25 11:40:00,26.2,19.0,30.43,NW,309,20.0,20.0,74,0.00,,,0.00,Wunderground v.1.15,2013-03-25 16:40:00,
2013-03-25 11:45:00,26.2,17.4,30.43,WNW,303,21.0,21.0,69,0.00,,,0.00,Wunderground v.1.15,2013-03-25 16:45:00,
2013-03-25 11:50:00,26.5,18.0,30.43,NW,306,19.0,26.0,70,0.00,,,0.00,Wunderground v.1.15,2013-03-25 16:50:00,
2013-03-25 11:55:00,26.2,17.7,30.43,NNW,328,20.0,30.0,70,0.00,,,0.00,Wunderground v.1.15,2013-03-25 16:55:00,
2013-03-25 12:05:00,26.5,18.0,30.43,WNW,303,25.0,25.0,70,0.00,,,0.00,Wunderground v.1.15,2013-03-25 17:05:00,
2013-03-25 12:10:00,27.0,18.5,30.43,NW,315,20.0,20.0,70,0.00,,,0.00,Wunderground v.1.15,2013-03-25 17:10:00,
2013-03-25 12:15:00,26.7,17.9,30.43,NW,321,19.0,20.0,69,0.00,,,0.00,Wunderground v.1.15,2013-03-25 17:15:00,
2013-03-25 12:20:00,27.2,18.7,30.43,NW,326,21.0,21.0,70,0.00,,,0.00,Wunderground v.1.15,2013-03-25 17:20:00,
2013-03-25 12:30:00,27.2,17.7,30.43,NW,309,21.0,21.0,67,0.00,,,0.00,Wunderground v.1.15,2013-03-25 17:30:00,
2013-03-25 12:35:00,27.4,18.2,30.43,NW,304,19.0,24.0,68,0.00,,,0.00,Wunderground v.1.15,2013-03-25 17:35:00,
2013-03-25 12:40:00,27.2,17.7,30.43,WNW,299,18.0,18.0,67,0.00,,,0.00,Wunderground v.1.15,2013-03-25 17:40:00,
2013-03-25 12:50:00,27.2,18.0,30.43,NW,324,19.0,24.0,68,0.00,,,0.00,Wunderground v.1.15,2013-03-25 17:50:00,
2013-03-25 12:55:00,26.9,17.4,30.43,North,360,19.0,24.0,67,0.00,,,0.00,Wunderground v.1.15,2013-03-25 17:55:00,
2013-03-25 13:00:00,26.8,17.0,30.44,NNW,340,18.0,18.0,66,0.00,,,0.00,Wunderground v.1.15,2013-03-25 18:00:00,
2013-03-25 13:05:00,27.0,17.5,30.43,NW,319,16.0,25.0,67,0.00,,,0.00,Wunderground v.1.15,2013-03-25 18:05:00,
2013-03-25 13:15:00,26.7,16.9,30.43,NW,325,21.0,26.0,66,0.00,,,0.00,Wunderground v.1.15,2013-03-25 18:15:00,
2013-03-25 13:20:00,26.8,16.6,30.43,NW,317,19.0,19.0,65,0.00,,,0.00,Wunderground v.1.15,2013-03-25 18:20:00,
2013-03-25 13:25:00,26.9,17.0,30.44,NW,314,19.0,19.0,66,0.00,,,0.00,Wunderground v.1.15,2013-03-25 18:25:00,
2013-03-25 13:30:00,27.0,16.8,30.44,NNW,343,17.0,17.0,65,0.00,,,0.00,Wunderground v.1.15,2013-03-25 18:30:00,
2013-03-25 13:40:00,27.3,17.1,30.44,NNW,331,16.0,19.0,65,0.00,,,0.00,Wunderground v.1.15,2013-03-25 18:40:00,
2013-03-25 13:45:00,26.4,16.6,30.44,WNW,302,18.0,19.0,66,0.00,,,0.00,Wunderground v.1.15,2013-03-25 18:45:00,
2013-03-25 13:50:00,26.6,17.8,30.44,NW,322,20.0,20.0,69,0.00,,,0.00,Wunderground v.1.15,2013-03-25 18:50:00,
2013-03-25 14:00:00,26.4,16.9,30.44,NNW,331,20.0,20.0,67,0.00,,,0.00,Wunderground v.1.15,2013-03-25 19:00:00,
2013-03-25 14:05:00,26.7,17.2,30.44,NW,321,19.0,20.0,67,0.00,,,0.00,Wunderground v.1.15,2013-03-25 19:05:00,
2013-03-25 14:10:00,27.3,17.8,30.44,NNW,330,16.0,16.0,67,0.00,,,0.00,Wunderground v.1.15,2013-03-25 19:10:00,
2013-03-25 14:15:00,27.4,16.8,30.43,NW,322,16.0,19.0,64,0.00,,,0.00,Wunderground v.1.15,2013-03-25 19:15:00,
2013-03-25 14:25:00,27.5,16.9,30.44,NW,306,15.0,19.0,64,0.00,,,0.00,Wunderground v.1.15,2013-03-25 19:25:00,
2013-03-25 14:30:00,27.4,17.2,30.44,NW,315,17.0,19.0,65,0.00,,,0.00,Wunderground v.1.15,2013-03-25 19:30:00,
2013-03-25 14:35:00,27.8,17.2,30.44,NNW,327,16.0,19.0,64,0.00,,,0.00,Wunderground v.1.15,2013-03-25 19:35:00,
2013-03-25 14:45:00,27.8,16.8,30.44,NNW,341,15.0,19.0,63,0.00,,,0.00,Wunderground v.1.15,2013-03-25 19:45:00,
2013-03-25 14:50:00,27.8,17.2,30.43,NW,323,15.0,15.0,64,0.00,,,0.00,Wunderground v.1.15,2013-03-25 19:50:00,
2013-03-25 14:55:00,27.9,16.9,30.43,NNW,331,15.0,19.0,63,0.00,,,0.00,Wunderground v.1.15,2013-03-25 19:55:00,
2013-03-25 15:00:00,27.8,16.8,30.43,NW,319,15.0,22.0,63,0.00,,,0.00,Wunderground v.1.15,2013-03-25 20:00:00,
2013-03-25 15:10:00,27.8,16.8,30.43,WNW,295,16.0,19.0,63,0.00,,,0.00,Wunderground v.1.15,2013-03-25 20:10:00,
2013-03-25 15:15:00,27.9,16.6,30.43,NNW,330,17.0,19.0,62,0.00,,,0.00,Wunderground v.1.15,2013-03-25 20:15:00,
2013-03-25 15:20:00,28.3,16.2,30.43,NW,306,15.0,15.0,60,0.00,,,0.00,Wunderground v.1.15,2013-03-25 20:20:00,
2013-03-25 15:25:00,28.2,16.8,30.43,NW,306,15.0,19.0,62,0.00,,,0.00,Wunderground v.1.15,2013-03-25 20:25:00,
2013-03-25 15:30:00,28.4,16.7,30.44,NW,320,15.0,20.0,61,0.00,,,0.00,Wunderground v.1.15,2013-03-25 20:30:00,
2013-03-25 15:40:00,28.2,17.2,30.43,NW,305,16.0,16.0,63,0.00,,,0.00,Wunderground v.1.15,2013-03-25 20:40:00,
2013-03-25 15:45:00,28.2,16.5,30.43,NW,323,15.0,19.0,61,0.00,,,0.00,Wunderground v.1.15,2013-03-25 20:45:00,
2013-03-25 15:50:00,28.2,16.5,30.43,North,350,14.0,19.0,61,0.00,,,0.00,Wunderground v.1.15,2013-03-25 20:50:00,
2013-03-25 15:55:00,28.4,17.0,30.43,NNW,346,13.0,19.0,62,0.00,,,0.00,Wunderground v.1.15,2013-03-25 20:55:00,
2013-03-25 16:05:00,28.4,16.7,30.43,NW,317,14.0,23.0,61,0.00,,,0.00,Wunderground v.1.15,2013-03-25 21:05:00,
2013-03-25 16:10:00,28.0,16.3,30.44,NW,311,17.0,17.0,61,0.00,,,0.00,Wunderground v.1.15,2013-03-25 21:10:00,
2013-03-25 16:15:00,28.2,16.5,30.44,NW,321,15.0,19.0,61,0.00,,,0.00,Wunderground v.1.15,2013-03-25 21:15:00,
2013-03-25 16:25:00,27.9,17.3,30.44,NW,321,15.0,19.0,64,0.00,,,0.00,Wunderground v.1.15,2013-03-25 21:25:00,
2013-03-25 16:30:00,28.0,17.0,30.44,NNW,345,15.0,15.0,63,0.00,,,0.00,Wunderground v.1.15,2013-03-25 21:30:00,
2013-03-25 16:35:00,28.1,17.1,30.44,NW,316,12.0,17.0,63,0.00,,,0.00,Wunderground v.1.15,2013-03-25 21:35:00,
2013-03-25 16:40:00,28.1,16.7,30.44,NW,325,13.0,19.0,62,0.00,,,0.00,Wunderground v.1.15,2013-03-25 21:40:00,
2013-03-25 16:50:00,28.2,17.2,30.44,NW,307,11.0,19.0,63,0.00,,,0.00,Wunderground v.1.15,2013-03-25 21:50:00,
2013-03-25 16:55:00,28.0,16.6,30.43,NW,325,13.0,19.0,62,0.00,,,0.00,Wunderground v.1.15,2013-03-25 21:55:00,
2013-03-25 17:00:00,28.0,17.4,30.44,NNW,348,14.0,14.0,64,0.00,,,0.00,Wunderground v.1.15,2013-03-25 22:00:00,
2013-03-25 17:10:00,27.9,16.6,30.44,NW,315,13.0,13.0,62,0.00,,,0.00,Wunderground v.1.15,2013-03-25 22:10:00,
2013-03-25 17:15:00,28.1,17.5,30.44,NW,319,12.0,14.0,64,0.00,,,0.00,Wunderground v.1.15,2013-03-25 22:15:00,
2013-03-25 17:20:00,27.7,17.1,30.44,NNW,343,13.0,19.0,64,0.00,,,0.00,Wunderground v.1.15,2013-03-25 22:20:00,
2013-03-25 17:25:00,27.5,16.5,30.44,NNW,327,14.0,19.0,63,0.00,,,0.00,Wunderground v.1.15,2013-03-25 22:25:00,
2013-03-25 17:35:00,27.4,16.4,30.44,NW,313,14.0,19.0,63,0.00,,,0.00,Wunderground v.1.15,2013-03-25 22:35:00,
2013-03-25 17:40:00,27.4,16.8,30.44,NW,318,14.0,19.0,64,0.00,,,0.00,Wunderground v.1.15,2013-03-25 22:40:00,
2013-03-25 17:45:00,27.3,17.4,30.44,NW,320,15.0,19.0,66,0.00,,,0.00,Wunderground v.1.15,2013-03-25 22:45:00,
2013-03-25 17:55:00,27.0,16.8,30.45,NW,309,15.0,15.0,65,0.00,,,0.00,Wunderground v.1.15,2013-03-25 22:55:00,
2013-03-25 18:00:00,27.0,16.8,30.45,NW,317,14.0,14.0,65,0.00,,,0.00,Wunderground v.1.15,2013-03-25 23:00:00,
2013-03-25 18:05:00,26.9,17.7,30.45,NNW,328,11.0,19.0,68,0.00,,,0.00,Wunderground v.1.15,2013-03-25 23:05:00,
2013-03-25 18:15:00,26.7,17.2,30.45,NW,318,12.0,19.0,67,0.00,,,0.00,Wunderground v.1.15,2013-03-25 23:15:00,
2013-03-25 18:20:00,26.6,16.8,30.45,NW,324,13.0,13.0,66,0.00,,,0.00,Wunderground v.1.15,2013-03-25 23:20:00,
2013-03-25 18:25:00,26.6,16.4,30.45,North,355,12.0,19.0,65,0.00,,,0.00,Wunderground v.1.15,2013-03-25 23:25:00,
2013-03-25 18:30:00,26.6,16.4,30.46,North,355,10.0,10.0,65,0.00,,,0.00,Wunderground v.1.15,2013-03-25 23:30:00,
2013-03-25 18:35:00,26.6,17.1,30.46,NNW,328,9.0,19.0,67,0.00,,,0.00,Wunderground v.1.15,2013-03-25 23:35:00,
2013-03-25 18:45:00,26.4,16.2,30.46,NNW,332,11.0,19.0,65,0.00,,,0.00,Wunderground v.1.15,2013-03-25 23:45:00,
2013-03-25 18:50:00,26.3,16.5,30.46,NNW,334,11.0,11.0,66,0.00,,,0.00,Wunderground v.1.15,2013-03-25 23:50:00,
2013-03-25 18:55:00,26.3,16.8,30.47,NNW,348,9.0,19.0,67,0.00,,,0.00,Wunderground v.1.15,2013-03-25 23:55:00,
2013-03-25 19:00:00,26.3,16.8,30.47,NW,320,8.0,8.0,67,0.00,,,0.00,Wunderground v.1.15,2013-03-26 00:00:00,
2013-03-25 19:10:00,26.0,17.2,30.47,NW,314,8.0,8.0,69,0.00,,,0.00,Wunderground v.1.15,2013-03-26 00:10:00,
2013-03-25 19:15:00,26.0,17.6,30.48,NW,315,8.0,19.0,70,0.00,,,0.00,Wunderground v.1.15,2013-03-26 00:15:00,
2013-03-25 19:20:00,26.1,17.3,30.47,NW,321,8.0,19.0,69,0.00,,,0.00,Wunderground v.1.15,2013-03-26 00:20:00,
2013-03-25 19:25:00,26.1,17.3,30.48,NW,319,10.0,19.0,69,0.00,,,0.00,Wunderground v.1.15,2013-03-26 00:25:00,
2013-03-25 19:35:00,26.0,17.9,30.48,NW,317,9.0,19.0,71,0.00,,,0.00,Wunderground v.1.15,2013-03-26 00:35:00,
2013-03-25 19:40:00,25.9,17.1,30.48,NNW,340,8.0,19.0,69,0.00,,,0.00,Wunderground v.1.15,2013-03-26 00:40:00,
2013-03-25 19:45:00,25.8,18.0,30.48,NW,316,7.0,19.0,72,0.00,,,0.00,Wunderground v.1.15,2013-03-26 00:45:00,
2013-03-25 19:50:00,25.8,17.7,30.48,NNW,342,7.0,7.0,71,0.00,,,0.00,Wunderground v.1.15,2013-03-26 00:50:00,
2013-03-25 19:55:00,25.8,17.7,30.48,NW,314,8.0,8.0,71,0.00,,,0.00,Wunderground v.1.15,2013-03-26 00:55:00,
2013-03-25 20:05:00,25.5,18.0,30.48,NNW,338,6.0,19.0,73,0.00,,,0.00,Wunderground v.1.15,2013-03-26 01:05:00,
2013-03-25 20:10:00,25.5,17.7,30.48,NNW,344,6.0,19.0,72,0.00,,,0.00,Wunderground v.1.15,2013-03-26 01:10:00,
2013-03-25 20:15:00,25.6,17.8,30.48,NW,319,8.0,19.0,72,0.00,,,0.00,Wunderground v.1.15,2013-03-26 01:15:00,
2013-03-25 20:25:00,25.4,18.6,30.48,NW,306,8.0,16.0,75,0.00,,,0.00,Wunderground v.1.15,2013-03-26 01:25:00,
2013-03-25 20:30:00,25.2,18.1,30.48,NW,313,11.0,19.0,74,0.00,,,0.00,Wunderground v.1.15,2013-03-26 01:30:00,
2013-03-25 20:35:00,25.2,17.8,30.48,NW,317,11.0,19.0,73,0.00,,,0.00,Wunderground v.1.15,2013-03-26 01:35:00,
2013-03-25 20:40:00,25.3,17.9,30.48,NW,320,9.0,19.0,73,0.00,,,0.00,Wunderground v.1.15,2013-03-26 01:40:00,
2013-03-25 20:50:00,25.3,17.2,30.48,NW,326,9.0,19.0,71,0.00,,,0.00,Wunderground v.1.15,2013-03-26 01:50:00,
2013-03-25 20:55:00,25.3,16.5,30.48,NNW,343,10.0,19.0,69,0.00,,,0.00,Wunderground v.1.15,2013-03-26 01:55:00,
2013-03-25 21:00:00,25.4,16.6,30.49,NW,311,11.0,11.0,69,0.00,,,0.00,Wunderground v.1.15,2013-03-26 02:00:00,
2013-03-25 21:05:00,25.3,17.2,30.49,NW,323,11.0,19.0,71,0.00,,,0.00,Wunderground v.1.15,2013-03-26 02:05:00,
2013-03-25 21:15:00,25.2,17.4,30.49,NW,307,10.0,19.0,72,0.00,,,0.00,Wunderground v.1.15,2013-03-26 02:15:00,
2013-03-25 21:20:00,25.1,17.0,30.49,NW,317,9.0,9.0,71,0.00,,,0.00,Wunderground v.1.15,2013-03-26 02:20:00,
2013-03-25 21:25:00,25.1,16.7,30.49,NW,323,8.0,19.0,70,0.00,,,0.00,Wunderground v.1.15,2013-03-26 02:25:00,
2013-03-25 21:30:00,25.0,16.6,30.49,NNW,329,7.0,19.0,70,0.00,,,0.00,Wunderground v.1.15,2013-03-26 02:30:00,
2013-03-25 21:40:00,24.8,16.7,30.49,NW,314,9.0,9.0,71,0.00,,,0.00,Wunderground v.1.15,2013-03-26 02:40:00,
2013-03-25 21:45:00,24.9,16.8,30.50,NNW,339,8.0,19.0,71,0.00,,,0.00,Wunderground v.1.15,2013-03-26 02:45:00,
2013-03-25 21:50:00,24.9,16.8,30.49,NW,325,6.0,19.0,71,0.00,,,0.00,Wunderground v.1.15,2013-03-26 02:50:00,
2013-03-25 22:00:00,24.9,17.1,30.50,NNW,332,6.0,19.0,72,0.00,,,0.00,Wunderground v.1.15,2013-03-26 03:00:00,
2013-03-25 22:05:00,24.9,17.8,30.50,NNW,327,5.0,19.0,74,0.00,,,0.00,Wunderground v.1.15,2013-03-26 03:05:00,
2013-03-25 22:10:00,24.9,17.5,30.50,NW,309,6.0,19.0,73,0.00,,,0.00,Wunderground v.1.15,2013-03-26 03:10:00,
2013-03-25 22:15:00,24.9,17.5,30.50,NNW,329,7.0,19.0,73,0.00,,,0.00,Wunderground v.1.15,2013-03-26 03:15:00,
2013-03-25 22:25:00,24.7,17.3,30.50,NNW,327,6.0,19.0,73,0.00,,,0.00,Wunderground v.1.15,2013-03-26 03:25:00,
2013-03-25 22:35:00,24.1,16.7,30.50,NW,318,6.0,19.0,73,0.00,,,0.00,Wunderground v.1.15,2013-03-26 03:35:00,
2013-03-25 22:40:00,23.8,16.7,30.50,NW,323,6.0,6.0,74,0.00,,,0.00,Wunderground v.1.15,2013-03-26 03:40:00,
2013-03-25 22:45:00,23.5,16.7,30.50,NW,326,5.0,19.0,75,0.00,,,0.00,Wunderground v.1.15,2013-03-26 03:45:00,
2013-03-25 22:50:00,23.1,16.4,30.50,NNW,327,5.0,5.0,75,0.00,,,0.00,Wunderground v.1.15,2013-03-26 03:50:00,
2013-03-25 23:00:00,22.5,16.1,30.50,NNW,331,4.0,19.0,76,0.00,,,0.00,Wunderground v.1.15,2013-03-26 04:00:00,
2013-03-25 23:05:00,22.2,16.1,30.50,NNW,331,4.0,19.0,77,0.00,,,0.00,Wunderground v.1.15,2013-03-26 04:05:00,
2013-03-25 23:10:00,22.0,15.9,30.50,NW,326,4.0,19.0,77,0.00,,,0.00,Wunderground v.1.15,2013-03-26 04:10:00,
2013-03-25 23:15:00,21.9,15.8,30.50,NW,319,5.0,19.0,77,0.00,,,0.00,Wunderground v.1.15,2013-03-26 04:15:00,
2013-03-25 23:25:00,21.4,15.6,30.50,NW,317,5.0,19.0,78,0.00,,,0.00,Wunderground v.1.15,2013-03-26 04:25:00,
2013-03-25 23:30:00,21.2,15.4,30.50,NW,317,5.0,5.0,78,0.00,,,0.00,Wunderground v.1.15,2013-03-26 04:30:00,
2013-03-25 23:35:00,21.0,15.2,30.50,NW,317,4.0,19.0,78,0.00,,,0.00,Wunderground v.1.15,2013-03-26 04:35:00,
2013-03-25 23:45:00,20.4,14.9,30.51,NW,317,3.0,19.0,79,0.00,,,0.00,Wunderground v.1.15,2013-03-26 04:45:00,
2013-03-25 23:50:00,20.0,14.5,30.50,NW,317,3.0,19.0,79,0.00,,,0.00,Wunderground v.1.15,2013-03-26 04:50:00,
2013-03-25 23:55:00,19.9,14.4,30.50,NW,315,4.0,19.0,79,0.00,,,0.00,Wunderground v.1.15,2013-03-26 04:55:00,